Berlin, NH

7:44 AM EDT on April 27, 2017 (GMT -0400)
Berlin Municipal

Weather History for KBML - January, 1997

Change the Weather History Date:

Friday, January 24, 1997

  Actual Average Record
Temperature  
Mean Temperature 4 °F -  
Max Temperature 18 °F 20 °F 48 °F (1999)
Min Temperature -9 °F 0 °F -24 °F (2003)
Degree Days  
Heating Degree Days 61    
Moisture  
Dew Point -4 °F    
Average Humidity 65    
Maximum Humidity 81    
Minimum Humidity 24    
Precipitation  
Precipitation 0.00 in - - ()
Sea Level Pressure  
Sea Level Pressure 30.59 in    
Wind  
Wind Speed 6 mph (SE)    
Max Wind Speed 22 mph    
Max Gust Speed 26 mph    
Visibility 9 miles    
Events Snow    
Averages and records for this station are not official NWS values.
T = Trace of Precipitation, MM = Missing Value Source: NWS Daily Summary

Daily Weather History Graph

Daily Weather History Graph

Search for Another Location

Airport or City:

Trip Planner

Search our weather history database for the weather conditions in past years. The results will help you decide how hot, cold, wet, or windy it might be!

Date:

Astronomy

Jan. 24, 1997 Rise Set
Actual Time 7:11 AM EST 4:42 PM EST
Civil Twilight 6:39 AM EST 5:14 PM EST
Nautical Twilight 6:04 AM EST 5:49 PM EST
Astronomical Twilight 5:29 AM EST 6:24 PM EST
Moon 6:03 PM EST (1/24) 7:23 AM EST (1/24)
Length of Visible Light 10h 34m
Length of Day
9h 31m
Full, 99% of the Moon is Illuminated
Jan 24
Full
Jan 31
Last Quarter
Feb 7
New
Feb 14
First Quarter
Feb 22
Full

Hourly Weather History & Observations

Time (EST) Temp. Windchill Dew Point Humidity Pressure Visibility Wind Dir Wind Speed Gust Speed Precip Events Conditions
12:52 AM -2.0 °F -13.9 °F -11.0 °F 66% 30.59 in 10.0 mi North 5.8 mph - N/A   Clear
1:52 AM -4.0 °F - -11.0 °F 72% 30.63 in 10.0 mi Calm Calm - N/A   Clear
2:52 AM -5.1 °F - -9.9 °F 80% 30.63 in 10.0 mi Calm Calm - N/A   Clear
3:52 AM -6.0 °F -14.7 °F -11.0 °F 79% 30.65 in 10.0 mi NNW 3.5 mph - N/A   Clear
5:52 AM -8.0 °F -16.9 °F -13.0 °F 79% 30.69 in 10.0 mi North 3.5 mph - N/A   Clear
6:52 AM -9.0 °F - -14.1 °F 79% 30.71 in 10.0 mi Calm Calm - N/A   Clear
7:52 AM -9.0 °F - -14.1 °F 79% 30.70 in 10.0 mi Calm Calm - N/A   Clear
8:52 AM -6.0 °F - -13.0 °F 72% 30.70 in 10.0 mi Calm Calm - N/A   Clear
9:52 AM -2.0 °F -10.1 °F -13.0 °F 60% 30.75 in 10.0 mi SE 3.5 mph - N/A   Clear
10:52 AM 3.9 °F -5.3 °F -8.0 °F 58% 30.70 in 10.0 mi NW 4.6 mph - N/A   Clear
11:52 AM 8.1 °F -3.2 °F -9.9 °F 44% 30.65 in 10.0 mi NNW 6.9 mph - N/A   Clear
12:52 PM 15.1 °F 1.1 °F -16.1 °F 24% 30.60 in 10.0 mi SSE 12.7 mph 23.0 mph N/A   Clear
1:52 PM 15.1 °F -0.1 °F -14.1 °F 27% 30.58 in 10.0 mi SSE 15.0 mph - N/A   Clear
2:52 PM 14.0 °F 0.5 °F -5.1 °F 43% 30.58 in 10.0 mi SSE 11.5 mph - N/A   Clear
3:52 PM 14.0 °F -1.4 °F 1.9 °F 59% 30.57 in 10.0 mi SE 15.0 mph 20.7 mph N/A   Clear
4:52 PM 15.1 °F 1.1 °F 3.9 °F 61% 30.59 in 10.0 mi SSE 12.7 mph - N/A   Scattered Clouds
5:52 PM 14.0 °F -4.3 °F 5.0 °F 67% 30.55 in 8.0 mi SE 21.9 mph 26.5 mph 0.00 in Snow Light Snow
6:52 PM 15.1 °F 2.5 °F 8.1 °F 74% 30.53 in 8.0 mi SE 10.4 mph - 0.00 in   Overcast
7:52 PM 17.1 °F 2.0 °F 10.9 °F 77% 30.48 in 4.0 mi SE 16.1 mph - 0.00 in Snow Light Snow
8:52 PM 16.0 °F 2.9 °F 10.9 °F 81% 30.44 in 4.0 mi SSE 11.5 mph - 0.00 in Snow Light Snow
9:52 PM 17.1 °F 2.5 °F 10.9 °F 77% 30.39 in 4.0 mi SSE 15.0 mph 20.7 mph 0.00 in Snow Light Snow
10:52 PM 18.0 °F 6.1 °F 12.9 °F 81% 30.32 in 2.5 mi SSE 10.4 mph - 0.00 in Snow Light Snow